• Processing (Info)

  • MPEC 2007-A51 : 2006 UY184

    The following Minor Planet Electronic Circular may be linked-to from your own Web pages, but must not otherwise be redistributed electronically.

    A form allowing access to any MPEC is at the bottom of this page.


    Read MPEC 2007-A50 Read MPEC 2007-A52


    M.P.E.C. 2007-A51                                Issued 2007 Jan. 14, 04:14 UT
    
         The Minor Planet Electronic Circulars contain information on unusual
             minor planets and routine data on comets.  They are published
       on behalf of Commission 20 of the International Astronomical Union by the
              Minor Planet Center, Smithsonian Astrophysical Observatory,
                              Cambridge, MA 02138, U.S.A.
    
                 Prepared using the Tamkin Foundation Computer Network
    
                                  MPC@CFA.HARVARD.EDU
              URL http://cfa-www.harvard.edu/iau/mpc.html  ISSN 1523-6714
    
                                      2006 UY184
    
    Additional Observations:
         K06UI4Y  C2007 01 11.82051 01 44 17.69 +09 05 42.9          23.4 V EA051493
         K06UI4Y  C2007 01 13.83291 01 44 18.36 +09 05 52.4          23.5 V EA051493
    
    Observer details:
    493 Calar Alto.  Observers J. L. Ortiz, P. Santos-Sanz.  Measurer R. Stoss.
        2.2-m reflector + CCD.
    
    Orbital elements:
    2006 UY184
    Eccentricity assumed
    Epoch 2006 Nov. 21.0 TT = JDT 2454060.5                 MPC
    M   0.09792              (2000.0)            P               Q
    n   0.00334345     Peri.  290.77635     +0.87808505     -0.47761103
    a  44.2934845      Node    97.76311     +0.44926064     +0.80185395
    e   0.1083395      Incl.    1.69044     +0.16471648     +0.35905146
    P 295              H    7.1           G   0.15
    From 9 observations 2006 Oct. 22-2007 Jan. 13.
    
    Ephemeris:
    2006 UY184               a,e,i = 44.29, 0.11, 2                  q = 39.495
    Date    TT    R. A. (2000) Decl.     Delta      r     Elong.  Phase     V
    2007 01 10    01 44.29   +09 05.6   39.342   39.495    98.2     1.4    23.2
    2007 01 20    01 44.38   +09 06.6   39.516   39.495    88.1     1.4    23.3
    2007 01 30    01 44.64   +09 08.5   39.689   39.495    78.0     1.4    23.3
    2007 02 09    01 45.06   +09 11.3   39.855   39.495    67.9     1.3    23.3
    2007 02 19    01 45.63   +09 15.0   40.010   39.495    58.0     1.2    23.3
    2007 03 01    01 46.33   +09 19.3   40.149   39.495    48.1     1.1    23.3
    2007 03 11    01 47.15   +09 24.3   40.269   39.495    38.3     0.9    23.3
    
    Brian G. Marsden             (C) Copyright 2007 MPC           M.P.E.C. 2007-A51
    

    Read MPEC 2007-A50 Read MPEC 2007-A52


    MPEC number:

    Enter an MPEC number in one of the following forms:

    • 1997-B01 (the full form)
    • J97B01 (the packed version of the full form)
    • B01 (the abbreviated form)